Location: La Brionne
(46.1728°N, 1.7849°E)
Time: 07:27:49
(UTC+00:00)

ITUPSAT 1 - Visible Passes

Search period start: 01 April 2023 00:00
Search period end: 11 April 2023 00:00
Orbit: 699 x 709 km, 98.5° (Epoch: 30 March)

Date Brightness Start Highest point End Pass type
(mag) Time Alt. Az. Time Alt. Az. Time Alt. Az.
01 Apr ? 19:55:06 10° NE 19:56:37 15° ENE 19:56:37 15° ENE visible
01 Apr ? 21:31:43 10° N 21:35:33 49° NNW 21:35:33 49° NNW visible
02 Apr ? 20:37:25 10° NNE 20:40:38 34° ENE 20:40:38 34° ENE visible
02 Apr ? 22:15:38 10° N 22:19:31 25° WNW 22:19:34 25° WNW visible
03 Apr ? 19:44:40 10° ENE 19:45:42 12° ENE 19:45:42 12° ENE visible
03 Apr ? 21:20:36 10° N 21:24:38 60° NNW 21:24:38 60° NNW visible
03 Apr ? 23:00:55 10° NW 23:02:18 11° NW 23:03:34 10° WNW visible
04 Apr ? 20:26:29 10° NNE 20:29:42 30° ENE 20:29:42 30° ENE visible
04 Apr ? 22:04:20 10° N 22:08:31 31° WNW 22:08:37 31° WNW visible
05 Apr ? 21:09:29 10° NNE 21:13:41 68° NNE 21:13:41 68° NNE visible
05 Apr ? 22:48:57 10° NNW 22:51:22 14° WNW 22:52:37 13° WNW visible
06 Apr ? 20:15:36 10° NE 20:18:44 25° ENE 20:18:44 25° ENE visible
06 Apr ? 21:53:04 10° N 21:57:30 38° WNW 21:57:40 38° WNW visible
07 Apr ? 20:58:24 10° NNE 21:02:43 63° ENE 21:02:43 63° ENE visible
07 Apr ? 22:37:21 10° NNW 22:40:25 17° WNW 22:41:39 16° WNW visible
08 Apr ? 20:04:48 10° NE 20:07:45 21° E 20:07:45 21° E visible
08 Apr ? 21:41:50 10° N 21:46:27 48° WNW 21:46:41 48° W visible
09 Apr ? 20:47:21 10° NNE 20:51:44 52° E 20:51:44 52° E visible
09 Apr ? 22:25:52 10° NNW 22:29:25 21° WNW 22:30:39 19° W visible
10 Apr ? 19:54:08 10° NE 19:56:45 17° E 19:56:45 17° E visible
10 Apr ? 21:30:37 10° N 21:35:22 62° WNW 21:35:41 60° W visible
